Вернуться в каталог

ONEWEB-0121

АктивенСвязьPO
NORAD 47267·PAYLOAD·🇬🇧 United Kingdom

Запущен Dec 18, 2020 с Vostochny Cosmodrome

Loading…

Ближайшие Пролёты (ближайшие 24 часа)

TLE

СвежийSource: CelesTrak SupGP

Эпоха: Sep 14, 2026, 19:36 UTC

1 47267C 20100K   26257.81685602 -.00002363  00000+0 -65748-2 0  2571
2 47267  87.8997 332.8672 0002208  99.4686   0.7849 13.12449600    10

Отслеживайте ONEWEB-0121 в реальном времени с AllMySat

Download on the App Store